Waarnemingen

Advertentie
Mijn weer
Catania/Sigonella, Italië (16459): temperatuur & dauwpunt: 12.11.2018 18:00:00 - 18.11.2018 18:00:00 (CET)Catania/Sigonella, Italië (16459): windsnelheid: 12.11.2018 18:00:00 - 18.11.2018 18:00:00 (CET)Catania/Sigonella, Italië (16459): windrichting: 12.11.2018 18:00:00 - 18.11.2018 18:00:00 (CET)Catania/Sigonella, Italië (16459): luchtdruk: 12.11.2018 18:00:00 - 18.11.2018 18:00:00 (CET)Catania/Sigonella, Italië (16459): zicht: 12.11.2018 18:00:00 - 18.11.2018 18:00:00 (CET)
Datum & Tijd tt [°C] td [°C] ff [km/u] ff [kn] dd ppp [hPa] vv [km]
18.11.2018 18:00:00 - - - - - - -
18.11.2018 17:00:00 17,0 17,0 - - - - 10
18.11.2018 16:00:00 18,2 15,8 15 8 OZO 1009,5 10
18.11.2018 15:00:00 21,0 11,0 - - - - 10
18.11.2018 14:00:00 22,0 11,0 - - - - 10
18.11.2018 13:00:00 21,8 11,2 4 2 ZZO 1009,3 10
18.11.2018 12:00:00 22,0 11,0 - - - - 10
18.11.2018 11:00:00 21,0 13,0 - - - - 10
18.11.2018 10:00:00 18,4 13,5 9 5 WZW 1009,5 10
18.11.2018 09:00:00 14,0 14,0 - - - - 10
18.11.2018 08:00:00 12,0 12,0 - - - - 10
18.11.2018 07:00:00 12,0 12,0 9 5 W 1008,7 15
18.11.2018 06:00:00 12,0 12,0 - - - - 10
18.11.2018 05:00:00 12,0 12,0 - - - - 10
18.11.2018 04:00:00 12,8 12,8 9 5 W 1009,6 12
18.11.2018 03:00:00 13,0 13,0 - - - - 10
18.11.2018 02:00:00 13,0 13,0 - - - - 10
18.11.2018 01:00:00 12,8 12,8 8 4 WNW 1011,3 13
18.11.2018 00:00:00 14,0 14,0 - - - - 10
17.11.2018 23:00:00 14,0 14,0 - - - - 10
17.11.2018 22:00:00 14,2 14,2 8 4 NW 1012,2 13
17.11.2018 21:00:00 16,0 16,0 - - - - 10
17.11.2018 20:00:00 16,0 15,0 - - - - 10
17.11.2018 19:00:00 16,6 15,0 16 9 O 1013,2 10
17.11.2018 18:00:00 16,0 15,0 - - - - 10
17.11.2018 17:00:00 16,0 15,0 - - - - 10
17.11.2018 16:00:00 17,0 14,5 16 9 O 1013,3 10
17.11.2018 15:00:00 17,0 15,0 - - - - 10
17.11.2018 14:00:00 17,0 15,0 - - - - 10
17.11.2018 13:00:00 17,8 14,7 24 13 ONO 1014,5 10
17.11.2018 12:00:00 17,0 16,0 - - - - 10
17.11.2018 11:00:00 17,0 16,0 - - - - 10
17.11.2018 10:00:00 17,0 15,4 9 5 NO 1015,5 10
17.11.2018 09:00:00 16,0 16,0 - - - - 9
17.11.2018 08:00:00 15,0 15,0 - - - - 9
17.11.2018 07:00:00 16,0 14,0 16 9 O 1015,3 8
17.11.2018 06:00:00 16,0 14,0 - - - - 8
17.11.2018 05:00:00 16,0 14,0 - - - - 8
17.11.2018 04:00:00 16,0 15,7 16 9 O 1015,5 8
17.11.2018 03:00:00 16,0 16,0 - - - - 8
17.11.2018 02:00:00 16,0 16,0 - - - - 8
17.11.2018 01:00:00 15,0 15,0 24 13 ONO 1016,3 8
17.11.2018 00:00:00 15,0 15,0 - - - - 8
16.11.2018 23:00:00 14,0 14,0 - - - - 7
16.11.2018 22:00:00 15,0 15,0 18 10 NO 1016,8 4,0
16.11.2018 21:00:00 15,0 15,0 18 10 ONO - 3,0
16.11.2018 20:00:00 14,0 14,0 15 8 NNO - 1,5
16.11.2018 19:00:00 15,0 15,0 13 7 O 1016,6 9
16.11.2018 18:00:00 16,0 16,0 9 5 OZO - 10
16.11.2018 17:00:00 17,0 17,0 18 10 O - 10
16.11.2018 16:00:00 18,6 18,6 15 8 ONO 1016,1 12
16.11.2018 15:00:00 19,0 19,0 15 8 OZO - 10
16.11.2018 14:00:00 18,0 18,0 16 9 O - 8
16.11.2018 13:00:00 18,4 18,4 4 2 Z 1017,5 7
16.11.2018 12:00:00 17,0 17,0 4 2 O - 7
16.11.2018 11:00:00 17,0 17,0 4 2 ZZO - 6
16.11.2018 10:00:00 16,4 16,4 8 4 W 1019,0 6
16.11.2018 09:00:00 15,0 15,0 - - - - 6
16.11.2018 08:00:00 14,0 14,0 - - - - 4,5
16.11.2018 07:00:00 13,4 13,4 4 2 W 1019,2 7
16.11.2018 06:00:00 14,0 14,0 - - - - 10
16.11.2018 05:00:00 13,0 13,0 - - - - 10
16.11.2018 04:00:00 12,0 12,0 9 5 NW 1019,4 10
16.11.2018 03:00:00 12,0 12,0 - - - - 10
16.11.2018 02:00:00 13,0 13,0 - - - - 10
16.11.2018 01:00:00 13,0 13,0 8 4 W 1020,6 10
16.11.2018 00:00:00 14,0 14,0 - - - - 10
15.11.2018 23:00:00 14,0 14,0 - - - - 10
15.11.2018 22:00:00 14,0 14,0 8 4 WZW 1020,5 10
15.11.2018 21:00:00 15,0 15,0 - - - - 10
15.11.2018 20:00:00 15,0 15,0 - - - - 10
15.11.2018 19:00:00 17,0 17,0 5 3 OZO 1020,5 10
15.11.2018 18:00:00 18,0 18,0 - - - - 10
15.11.2018 17:00:00 19,0 17,0 - - - - 10
15.11.2018 16:00:00 20,6 15,8 4 2 ZZW 1020,9 10
15.11.2018 15:00:00 21,0 15,0 - - - - 8
15.11.2018 14:00:00 22,0 14,0 - - - - 8
15.11.2018 13:00:00 22,0 14,9 4 2 WNW 1021,9 8
15.11.2018 12:00:00 21,0 16,0 - - - - 8
15.11.2018 11:00:00 20,0 17,0 - - - - 8
15.11.2018 10:00:00 17,8 17,8 5 3 W 1023,5 8
15.11.2018 09:00:00 15,0 15,0 - - - - 8
15.11.2018 08:00:00 12,0 12,0 - - - - 8
15.11.2018 07:00:00 10,6 10,6 9 5 WNW 1023,3 8
15.11.2018 06:00:00 11,0 11,0 - - - - 10
15.11.2018 05:00:00 12,0 12,0 - - - - 10
15.11.2018 04:00:00 11,6 11,6 8 4 W 1023,6 10
15.11.2018 03:00:00 12,0 12,0 - - - - 10
15.11.2018 02:00:00 11,0 11,0 - - - - 10
15.11.2018 01:00:00 11,6 11,6 9 5 W 1024,0 10
15.11.2018 00:00:00 12,0 12,0 - - - - 10
14.11.2018 23:00:00 12,0 12,0 - - - - 10
14.11.2018 22:00:00 13,6 13,6 9 5 WNW 1023,9 10
14.11.2018 21:00:00 14,0 14,0 - - - - 10
14.11.2018 20:00:00 15,0 15,0 - - - - 10
14.11.2018 19:00:00 16,0 16,0 4 2 OZO 1024,1 10
14.11.2018 18:00:00 17,0 16,0 - - - - 10
14.11.2018 17:00:00 19,0 17,0 - - - - 10
14.11.2018 16:00:00 22,8 14,6 4 2 OZO 1023,9 15
14.11.2018 15:00:00 24,0 15,0 - - - - 10
14.11.2018 14:00:00 24,0 14,0 - - - - 10
14.11.2018 13:00:00 23,0 13,8 5 3 W 1025,0 15
14.11.2018 12:00:00 22,0 15,0 - - - - 10
14.11.2018 11:00:00 21,0 15,0 - - - - 10
14.11.2018 10:00:00 18,0 15,4 11 6 W 1026,8 15
14.11.2018 09:00:00 15,0 13,0 - - - - 10
14.11.2018 08:00:00 12,0 12,0 - - - - 10
14.11.2018 07:00:00 10,0 10,0 11 6 W 1026,6 10
14.11.2018 06:00:00 10,0 10,0 - - - - 10
14.11.2018 05:00:00 11,0 11,0 - - - - 10
14.11.2018 04:00:00 11,0 11,0 9 5 WNW 1026,8 10
14.11.2018 03:00:00 12,0 12,0 - - - - 10
14.11.2018 02:00:00 12,0 12,0 - - - - 10
14.11.2018 01:00:00 13,0 13,0 9 5 WNW 1027,1 10
14.11.2018 00:00:00 14,0 14,0 - - - - 10
13.11.2018 23:00:00 14,0 14,0 - - - - 10
13.11.2018 22:00:00 14,2 14,2 9 5 W 1027,6 10
13.11.2018 21:00:00 15,0 15,0 - - - - 10
13.11.2018 20:00:00 16,0 16,0 - - - - 10
13.11.2018 19:00:00 16,2 16,2 2 1 W 1027,2 10
13.11.2018 18:00:00 19,0 18,0 - - - - 10
13.11.2018 17:00:00 19,0 17,0 - - - - 10
13.11.2018 16:00:00 21,0 16,0 11 6 O 1026,4 10
13.11.2018 15:00:00 23,0 15,0 - - - - 10
13.11.2018 14:00:00 23,0 19,0 - - - - 8
13.11.2018 13:00:00 23,8 19,3 0 0 N 1027,6 8
13.11.2018 12:00:00 23,0 20,0 - - - - 8
13.11.2018 11:00:00 22,0 22,0 - - - - 7
13.11.2018 10:00:00 19,6 19,6 8 4 WZW 1028,4 5
13.11.2018 09:00:00 16,0 16,0 - - - - 5
13.11.2018 08:00:00 14,0 14,0 - - - - 5
13.11.2018 07:00:00 11,4 11,4 8 4 W 1027,7 5
13.11.2018 06:00:00 12,0 12,0 - - - - 7
13.11.2018 05:00:00 12,0 12,0 - - - - 7
13.11.2018 04:00:00 12,2 12,2 11 6 W 1027,4 5
13.11.2018 03:00:00 13,0 13,0 - - - - 7
13.11.2018 02:00:00 13,0 13,0 - - - - 8
13.11.2018 01:00:00 14,2 14,2 9 5 WZW 1027,2 8
13.11.2018 00:00:00 14,0 14,0 - - - - 8
12.11.2018 23:00:00 14,0 14,0 - - - - 8
12.11.2018 22:00:00 14,0 14,0 8 4 WZW 1027,0 8
12.11.2018 21:00:00 15,0 15,0 - - - - 9
12.11.2018 20:00:00 16,0 16,0 - - - - 10
12.11.2018 19:00:00 17,2 17,2 8 4 WZW 1026,5 10
12.11.2018 18:00:00 18,0 18,0 - - - - 10

tt = temperatuur
td = dauwpunt
ff = windsnelheid
dd = windrichting
ppp = luchtdruk
vv = zicht

Weerstations in de omgeving